Regional Weather Roundup
Issued by NWS

Home | Current Version | Previous Version | Graphics & Text | Print | Product List | Glossary On
Versions: 1 2 3 4 5 6 7 8 9 10 11 12 13 14 15 16 17 18 19 20 21 22 23 24 25 26 27 28 29 30 31 32 33 34 35 36 37 38 39 40 41 42 43 44 45 46 47 48 49 50
000
ASUS43 KLOT 112300
RWRIL

ILLINOIS REGIONAL WEATHER ROUNDUP
NATIONAL WEATHER SERVICE CHICAGO/ROMEOVILLE IL
600 PM CDT FRI JUL 11 2014

NOTE: "FAIR" INDICATES FEW OR NO CLOUDS BELOW 12,000 FEET WITH NO
SIGNIFICANT WEATHER AND/OR OBSTRUCTIONS TO VISIBILITY.

* THESE STATIONS ARE NOT UNDER NWS QUALITY CONTROL. THEY ALSO MAY NOT
  REPORT WEATHER SUCH AS PRECIPITATION OR FOG.

ILZ001-002-007-009-015-016-024-120000-
NORTHWEST ILLINOIS

CITY           SKY/WX    TMP DP  RH WIND       PRES   REMARKS
MOLINE         CLOUDY    76  66  71 SE10      30.02F
STERLING*      CLOUDY    75  64  69 S6        30.07F
$$

ILZ003-004-008-010-011-017-018-120000-
NORTH CENTRAL ILLINOIS

CITY           SKY/WX    TMP DP  RH WIND       PRES   REMARKS
ROCKFORD       CLOUDY    75  60  59 S7        30.11S
FREEPORT*      CLOUDY    71  62  73 SE6       30.11S
$$

ILZ005-006-012>014-019>023-120000-
NORTHEAST ILLINOIS

CITY           SKY/WX    TMP DP  RH WIND       PRES   REMARKS
CHICAGO-OHARE  CLOUDY    74  58  57 S3        30.10R
CHICAGO-MIDWAY CLOUDY    81  54  39 S9        30.10R HX  81
AURORA         CLOUDY    77  57  50 S9        30.11S
WAUKEGAN       CLOUDY    72  56  57 S8        30.11R
DUPAGE AIRPORT CLOUDY    76  57  51 S8        30.10S
WHEELING       CLOUDY    76  57  51 S5        30.12R
NORTHERLY ISL    N/A     70  65  84 S7          N/A
$$

LMZ740>746-120000-
SOUTHERN LAKE MICHIGAN

STATION/POSITION SKY/WX   TEMP    WIND        PRES    VSBY  WAVE
                          AIR SEA DIR/SP/G                  HT/PER
                          (F)     (DEG/KT/KT) (MB)    (MI)  (FT/S)
SOUTHERN BUOY              65 64  140/  8/  8 1020.0F         0
WAUKEGAN HARBOR            67     200/ 12/ 13 1020.7R
HARRISON CRIB              72     110/ 18/ 20   N/A
BURNHAM HARBOR             70     130/  5/ 10   N/A
CALUMET HARBOR             78     170/  6/  9 1020.4F
BURNS HARBOR               78     170/ 10/ 20 1019.6
MICHIGAN CITY              72      20/  7/  7   N/A
$$

ILZ025>027-034>036-040-047-049-050-058-095>099-120000-
WEST-CENTRAL ILLINOIS

CITY           SKY/WX    TMP DP  RH WIND       PRES   REMARKS
QUINCY         CLOUDY    82  70  66 SE8       30.05F HX  86
MACOMB*        LGT RAIN  76  70  82 SE6       30.09F
$$

ILZ028>032-037-038-041>044-048-051>054-059>061-120000-
CENTRAL ILLINOIS

CITY           SKY/WX    TMP DP  RH WIND       PRES   REMARKS
DECATUR        MOSUNNY   83  63  50 S9        30.11F HX  84
PEORIA         PTSUNNY   81  64  56 S10       30.11R HX  82
SPRINGFIELD    PTSUNNY   84  66  54 S7        30.09F HX  86
TAYLORVILLE    NOT AVBL
$$

ILZ033-039-045-046-055>057-062-063-120000-
EAST-CENTRAL ILLINOIS

CITY           SKY/WX    TMP DP  RH WIND       PRES   REMARKS
CHAMPAIGN      MOSUNNY   83  61  47 SE9       30.13S HX  83
MATTOON        SUNNY     83  60  45 S8        30.11F HX  83
$$

ILZ079-100>102-120000-
SOUTHWEST ILLINOIS

CITY           SKY/WX    TMP DP  RH WIND       PRES   REMARKS
ALTON          PTSUNNY   84  70  61 SE8       30.08F HX  88
BELLEVILLE     MOSUNNY   87  71  58 S6        30.08F HX  93
CAHOKIA*       MOSUNNY   87  70  56 S8        30.08S HX  92
$$

ILZ064>066-069>071-074>076-080>082-084>086-088>090-092>094-120000-
SOUTH-CENTRAL ILLINOIS

CITY           SKY/WX    TMP DP  RH WIND       PRES   REMARKS
CARBONDALE     SUNNY     87  67  51 S9        30.10F HX  90
MARION         PTSUNNY   88  68  51 S9        30.12F HX  91
MT. VERNON     SUNNY     86  64  48 S9        30.11F HX  87
$$

ILZ067-068-072-073-078-083-087-091-120000-
SOUTHEAST ILLINOIS

CITY           SKY/WX    TMP DP  RH WIND       PRES   REMARKS
$$

ABBREVIATIONS USED IN REMARKS
   TC - TEMPERATURE IN CELSIUS
  WCI - WIND CHILL INDEX
   HX - HEAT INDEX
  VSB - VISIBILITY
$$




USA.gov is the U.S. government's official web portal to all federal, state and local government web resources and services.